Time,TemperatureF,DewpointF,PressureIn,WindDirection,WindDirectionDegrees,WindSpeedMPH,WindSpeedGustMPH,Humidity,HourlyPrecipIn,Conditions,Clouds,dailyrainin,SolarRadiationWatts/m^2,SoftwareType,DateUTC
2016-07-28 00:00:00,71.1,60.4,30.09,SSW,209,10.0,21.0,69,0.00,,,0.00,0.0,meteohub,2016-07-28 07:00:00,
2016-07-28 00:05:00,70.9,60.3,30.09,South,176,11.0,20.0,69,0.00,,,0.00,0.0,meteohub,2016-07-28 07:05:00,
2016-07-28 00:10:00,70.7,60.1,30.10,SW,220,12.0,20.0,69,0.00,,,0.00,0.0,meteohub,2016-07-28 07:10:00,
2016-07-28 00:15:00,70.5,59.9,30.10,SSW,193,11.0,20.0,69,0.00,,,0.00,0.0,meteohub,2016-07-28 07:15:00,
2016-07-28 00:20:00,70.3,60.1,30.10,South,186,13.0,20.0,70,0.00,,,0.00,0.0,meteohub,2016-07-28 07:20:00,
2016-07-28 00:25:00,70.2,59.9,30.10,SSW,207,13.0,21.0,70,0.00,,,0.00,0.0,meteohub,2016-07-28 07:25:00,
2016-07-28 00:30:00,69.6,59.7,30.10,SSW,205,10.0,21.0,71,0.00,,,0.00,0.0,meteohub,2016-07-28 07:30:00,
2016-07-28 00:35:00,69.4,60.1,30.10,South,188,9.0,21.0,72,0.00,,,0.00,0.0,meteohub,2016-07-28 07:35:00,
2016-07-28 00:41:00,69.4,60.1,30.10,SSW,200,12.0,21.0,72,0.00,,,0.00,0.0,meteohub,2016-07-28 07:41:00,
2016-07-28 00:46:00,69.3,59.9,30.10,South,186,7.0,18.0,72,0.00,,,0.00,0.0,meteohub,2016-07-28 07:46:00,
2016-07-28 00:51:00,69.3,59.9,30.10,SW,223,10.0,17.0,72,0.00,,,0.00,0.0,meteohub,2016-07-28 07:51:00,
2016-07-28 00:56:00,69.1,60.1,30.10,SSW,201,2.0,17.0,73,0.00,,,0.00,0.0,meteohub,2016-07-28 07:56:00,
2016-07-28 01:01:00,68.7,60.1,30.10,South,191,6.0,17.0,74,0.00,,,0.00,0.0,meteohub,2016-07-28 08:01:00,
2016-07-28 01:06:00,68.5,59.9,30.10,SSW,200,7.0,14.0,74,0.00,,,0.00,0.0,meteohub,2016-07-28 08:06:00,
2016-07-28 01:11:00,68.4,59.7,30.10,South,190,1.0,11.0,74,0.00,,,0.00,0.0,meteohub,2016-07-28 08:11:00,
2016-07-28 01:16:00,68.2,59.9,30.11,WSW,238,3.0,11.0,75,0.00,,,0.00,0.0,meteohub,2016-07-28 08:16:00,
2016-07-28 01:21:00,68.0,59.7,30.11,SSW,211,0.0,9.0,75,0.00,,,0.00,0.0,meteohub,2016-07-28 08:21:00,
2016-07-28 01:26:00,67.8,59.5,30.11,SW,232,0.0,10.0,75,0.00,,,0.00,0.0,meteohub,2016-07-28 08:26:00,
2016-07-28 01:31:00,67.8,59.5,30.11,SW,232,0.0,10.0,75,0.00,,,0.00,0.0,meteohub,2016-07-28 08:31:00,
2016-07-28 01:36:00,67.8,59.5,30.11,SW,232,0.0,10.0,75,0.00,,,0.00,0.0,meteohub,2016-07-28 08:36:00,
2016-07-28 01:41:00,67.6,59.4,30.10,SW,232,0.0,4.0,75,0.00,,,0.00,0.0,meteohub,2016-07-28 08:41:00,
2016-07-28 01:46:00,67.6,59.7,30.10,SW,232,0.0,0.0,76,0.00,,,0.00,0.0,meteohub,2016-07-28 08:46:00,
2016-07-28 01:51:00,67.5,59.5,30.11,SW,231,0.0,0.0,76,0.00,,,0.00,0.0,meteohub,2016-07-28 08:51:00,
2016-07-28 01:56:00,67.5,59.5,30.11,SW,231,0.0,0.0,76,0.00,,,0.00,0.0,meteohub,2016-07-28 08:56:00,
2016-07-28 02:01:00,67.3,59.5,30.11,SW,231,0.0,0.0,76,0.00,,,0.00,0.0,meteohub,2016-07-28 09:01:00,
2016-07-28 02:06:00,67.1,59.7,30.11,SW,231,0.0,0.0,77,0.00,,,0.00,0.0,meteohub,2016-07-28 09:06:00,
2016-07-28 02:11:00,66.7,59.4,30.11,SW,231,0.0,0.0,77,0.00,,,0.00,0.0,meteohub,2016-07-28 09:11:00,
2016-07-28 02:16:00,66.4,59.4,30.11,SW,231,0.0,0.0,78,0.00,,,0.00,0.0,meteohub,2016-07-28 09:16:00,
2016-07-28 02:22:00,66.2,59.2,30.11,SW,230,0.0,0.0,78,0.00,,,0.00,0.0,meteohub,2016-07-28 09:22:00,
2016-07-28 02:27:00,66.0,59.4,30.11,SW,230,0.0,0.0,79,0.00,,,0.00,0.0,meteohub,2016-07-28 09:27:00,
2016-07-28 02:32:00,65.8,59.2,30.11,SW,230,0.0,0.0,79,0.00,,,0.00,0.0,meteohub,2016-07-28 09:32:00,
2016-07-28 02:37:00,65.7,59.0,30.11,SW,230,0.0,0.0,79,0.00,,,0.00,0.0,meteohub,2016-07-28 09:37:00,
2016-07-28 02:42:00,65.7,59.0,30.11,SW,229,0.0,0.0,79,0.00,,,0.00,0.0,meteohub,2016-07-28 09:42:00,
2016-07-28 02:47:00,65.5,59.2,30.11,SW,229,0.0,0.0,80,0.00,,,0.00,0.0,meteohub,2016-07-28 09:47:00,
2016-07-28 02:52:00,65.3,59.0,30.11,SW,229,0.0,0.0,80,0.00,,,0.00,0.0,meteohub,2016-07-28 09:52:00,
2016-07-28 02:57:00,65.1,58.8,30.12,SW,229,0.0,0.0,80,0.00,,,0.00,0.0,meteohub,2016-07-28 09:57:00,
2016-07-28 03:02:00,65.1,58.8,30.12,SW,229,0.0,0.0,80,0.00,,,0.00,0.0,meteohub,2016-07-28 10:02:00,
2016-07-28 03:07:00,64.9,59.0,30.12,SW,229,0.0,0.0,81,0.00,,,0.00,0.0,meteohub,2016-07-28 10:07:00,
2016-07-28 03:12:00,64.8,58.8,30.12,SW,229,0.0,0.0,81,0.00,,,0.00,0.0,meteohub,2016-07-28 10:12:00,
2016-07-28 03:17:00,64.6,58.6,30.12,SW,229,0.0,0.0,81,0.00,,,0.00,0.0,meteohub,2016-07-28 10:17:00,
2016-07-28 03:22:00,64.4,58.8,30.12,SW,229,0.0,0.0,82,0.00,,,0.00,0.0,meteohub,2016-07-28 10:22:00,
2016-07-28 03:27:00,64.2,58.6,30.12,SW,229,0.0,0.0,82,0.00,,,0.00,0.0,meteohub,2016-07-28 10:27:00,
2016-07-28 03:32:00,64.2,58.6,30.12,SW,229,0.0,0.0,82,0.00,,,0.00,0.0,meteohub,2016-07-28 10:32:00,
2016-07-28 03:37:00,64.0,58.5,30.12,SW,229,0.0,0.0,82,0.00,,,0.00,0.0,meteohub,2016-07-28 10:37:00,
2016-07-28 03:42:00,64.0,58.5,30.12,SW,229,0.0,0.0,82,0.00,,,0.00,0.0,meteohub,2016-07-28 10:42:00,
2016-07-28 03:48:00,64.0,58.5,30.12,SW,229,0.0,0.0,82,0.00,,,0.00,0.0,meteohub,2016-07-28 10:48:00,
2016-07-28 03:53:00,63.9,58.6,30.12,SW,229,0.0,0.0,83,0.00,,,0.00,0.0,meteohub,2016-07-28 10:53:00,
2016-07-28 03:58:00,63.7,59.0,30.12,SW,230,0.0,2.0,85,0.00,,,0.00,0.0,meteohub,2016-07-28 10:58:00,
2016-07-28 04:03:00,63.3,58.5,30.12,WNW,299,0.0,2.0,84,0.00,,,0.00,0.0,meteohub,2016-07-28 11:03:00,
2016-07-28 04:08:00,63.3,58.1,30.12,NNW,335,2.0,2.0,83,0.00,,,0.00,0.0,meteohub,2016-07-28 11:08:00,
2016-07-28 04:13:00,63.5,58.3,30.12,NNW,343,3.0,4.0,83,0.00,,,0.00,0.0,meteohub,2016-07-28 11:13:00,
2016-07-28 04:18:00,63.7,58.1,30.12,NNW,346,4.0,4.0,82,0.00,,,0.00,0.0,meteohub,2016-07-28 11:18:00,
2016-07-28 04:23:00,63.9,58.3,30.12,NNE,17,4.0,6.0,82,0.00,,,0.00,0.0,meteohub,2016-07-28 11:23:00,
2016-07-28 04:28:00,63.9,57.9,30.12,North,350,8.0,8.0,81,0.00,,,0.00,0.0,meteohub,2016-07-28 11:28:00,
2016-07-28 04:33:00,63.9,57.9,30.12,North,349,8.0,8.0,81,0.00,,,0.00,0.0,meteohub,2016-07-28 11:33:00,
2016-07-28 04:38:00,63.7,58.1,30.12,NNW,346,8.0,10.0,82,0.00,,,0.00,0.0,meteohub,2016-07-28 11:38:00,
2016-07-28 04:43:00,63.5,57.9,30.12,NNE,25,8.0,10.0,82,0.00,,,0.00,0.0,meteohub,2016-07-28 11:43:00,
2016-07-28 04:48:00,63.5,58.3,30.12,NNE,20,9.0,10.0,83,0.00,,,0.00,0.0,meteohub,2016-07-28 11:48:00,
2016-07-28 04:53:00,63.5,58.3,30.12,North,355,9.0,10.0,83,0.00,,,0.00,0.0,meteohub,2016-07-28 11:53:00,
2016-07-28 04:58:00,63.1,57.9,30.12,North,5,8.0,10.0,83,0.00,,,0.00,0.0,meteohub,2016-07-28 11:58:00,
2016-07-28 05:03:00,63.1,57.9,30.12,NNW,347,6.0,10.0,83,0.00,,,0.00,0.0,meteohub,2016-07-28 12:03:00,
2016-07-28 05:08:00,63.0,57.7,30.12,NNW,344,8.0,10.0,83,0.00,,,0.00,0.0,meteohub,2016-07-28 12:08:00,
2016-07-28 05:13:00,63.0,57.7,30.12,NNW,348,8.0,10.0,83,0.00,,,0.00,0.0,meteohub,2016-07-28 12:13:00,
2016-07-28 05:18:00,63.1,57.6,30.12,NNW,334,10.0,10.0,82,0.00,,,0.00,0.0,meteohub,2016-07-28 12:18:00,
2016-07-28 05:23:00,63.1,57.9,30.12,NNW,347,8.0,10.0,83,0.00,,,0.00,0.0,meteohub,2016-07-28 12:23:00,
2016-07-28 05:28:00,63.1,57.6,30.12,NNW,345,9.0,11.0,82,0.00,,,0.00,0.0,meteohub,2016-07-28 12:28:00,
2016-07-28 05:33:00,63.1,57.9,30.12,North,355,8.0,11.0,83,0.00,,,0.00,0.0,meteohub,2016-07-28 12:33:00,
2016-07-28 05:38:00,63.0,57.7,30.12,North,349,9.0,11.0,83,0.00,,,0.00,5.0,meteohub,2016-07-28 12:38:00,
2016-07-28 05:43:00,62.8,57.9,30.12,North,350,10.0,11.0,84,0.00,,,0.00,5.0,meteohub,2016-07-28 12:43:00,
2016-07-28 05:48:00,62.8,57.6,30.12,NNW,342,8.0,11.0,83,0.00,,,0.00,7.0,meteohub,2016-07-28 12:48:00,
2016-07-28 05:53:00,62.8,57.6,30.12,NNW,338,8.0,11.0,83,0.00,,,0.00,9.0,meteohub,2016-07-28 12:53:00,
2016-07-28 05:58:00,62.8,57.6,30.12,North,351,9.0,11.0,83,0.00,,,0.00,9.0,meteohub,2016-07-28 12:58:00,
2016-07-28 06:03:00,62.8,57.9,30.12,North,350,9.0,11.0,84,0.00,,,0.00,11.0,meteohub,2016-07-28 13:03:00,
2016-07-28 06:08:00,62.8,57.6,30.12,NNW,338,10.0,11.0,83,0.00,,,0.00,12.0,meteohub,2016-07-28 13:08:00,
2016-07-28 06:13:00,62.6,57.7,30.12,NNW,345,9.0,11.0,84,0.00,,,0.00,12.0,meteohub,2016-07-28 13:13:00,
2016-07-28 06:18:00,62.4,57.6,30.12,North,355,10.0,11.0,84,0.00,,,0.00,14.0,meteohub,2016-07-28 13:18:00,
2016-07-28 06:23:00,62.4,57.9,30.12,NNW,347,9.0,11.0,85,0.00,,,0.00,16.0,meteohub,2016-07-28 13:23:00,
2016-07-28 06:28:00,62.6,57.7,30.12,NNE,14,9.0,11.0,84,0.00,,,0.00,16.0,meteohub,2016-07-28 13:28:00,
2016-07-28 06:33:00,62.6,58.1,30.12,North,0,10.0,11.0,85,0.00,,,0.00,18.0,meteohub,2016-07-28 13:33:00,
2016-07-28 06:38:00,62.4,57.9,30.13,North,355,8.0,11.0,85,0.00,,,0.00,19.0,meteohub,2016-07-28 13:38:00,
2016-07-28 06:43:00,62.4,58.1,30.13,NNW,338,8.0,11.0,86,0.00,,,0.00,21.0,meteohub,2016-07-28 13:43:00,
2016-07-28 06:48:00,62.2,57.9,30.13,North,351,8.0,11.0,86,0.00,,,0.00,21.0,meteohub,2016-07-28 13:48:00,
2016-07-28 06:53:00,62.2,57.9,30.13,NNW,331,10.0,11.0,86,0.00,,,0.00,25.0,meteohub,2016-07-28 13:53:00,
2016-07-28 06:58:00,62.2,58.3,30.12,NNW,333,10.0,10.0,87,0.00,,,0.00,26.0,meteohub,2016-07-28 13:58:00,
2016-07-28 07:03:00,62.4,58.1,30.13,NNW,332,10.0,10.0,86,0.00,,,0.00,28.0,meteohub,2016-07-28 14:03:00,
2016-07-28 07:08:00,62.6,58.6,30.13,NNW,343,10.0,13.0,87,0.00,,,0.00,30.0,meteohub,2016-07-28 14:08:00,
2016-07-28 07:13:00,62.8,58.8,30.13,NNW,346,9.0,13.0,87,0.00,,,0.00,30.0,meteohub,2016-07-28 14:13:00,
2016-07-28 07:18:00,63.0,58.6,30.13,North,355,11.0,13.0,86,0.00,,,0.00,32.0,meteohub,2016-07-28 14:18:00,
2016-07-28 07:23:00,63.0,58.6,30.13,NNW,338,12.0,13.0,86,0.00,,,0.00,32.0,meteohub,2016-07-28 14:23:00,
2016-07-28 07:28:00,63.0,58.6,30.13,North,350,13.0,14.0,86,0.00,,,0.00,33.0,meteohub,2016-07-28 14:28:00,
2016-07-28 07:33:00,62.8,58.3,30.13,NNW,347,11.0,14.0,85,0.00,,,0.00,33.0,meteohub,2016-07-28 14:33:00,
2016-07-28 07:38:00,62.8,58.5,30.13,NNW,342,11.0,14.0,86,0.00,,,0.00,35.0,meteohub,2016-07-28 14:38:00,
2016-07-28 07:43:00,62.8,58.5,30.13,North,350,11.0,14.0,86,0.00,,,0.00,35.0,meteohub,2016-07-28 14:43:00,
2016-07-28 07:48:00,62.8,58.5,30.13,NNW,348,11.0,13.0,86,0.00,,,0.00,37.0,meteohub,2016-07-28 14:48:00,
2016-07-28 07:53:00,63.1,58.6,30.13,North,350,11.0,12.0,85,0.00,,,0.00,37.0,meteohub,2016-07-28 14:53:00,
2016-07-28 07:58:00,63.1,58.8,30.13,North,0,10.0,12.0,86,0.00,,,0.00,39.0,meteohub,2016-07-28 14:58:00,
2016-07-28 08:03:00,63.7,58.8,30.13,North,5,9.0,12.0,84,0.00,,,0.00,56.0,meteohub,2016-07-28 15:03:00,
2016-07-28 08:08:00,63.5,58.8,30.13,North,9,9.0,11.0,85,0.00,,,0.00,114.0,meteohub,2016-07-28 15:08:00,
2016-07-28 08:13:00,63.3,59.0,30.12,North,9,9.0,11.0,86,0.00,,,0.00,192.0,meteohub,2016-07-28 15:13:00,
2016-07-28 08:18:00,63.7,59.0,30.12,North,0,9.0,11.0,85,0.00,,,0.00,288.0,meteohub,2016-07-28 15:18:00,
2016-07-28 08:23:00,64.0,59.2,30.12,NNE,15,9.0,11.0,84,0.00,,,0.00,353.0,meteohub,2016-07-28 15:23:00,
2016-07-28 08:28:00,64.6,59.0,30.12,NNE,15,9.0,10.0,82,0.00,,,0.00,381.0,meteohub,2016-07-28 15:28:00,
2016-07-28 08:33:00,64.8,59.2,30.12,NNE,13,11.0,11.0,82,0.00,,,0.00,397.0,meteohub,2016-07-28 15:33:00,
2016-07-28 08:38:00,64.6,59.4,30.12,NNE,19,10.0,12.0,83,0.00,,,0.00,410.0,meteohub,2016-07-28 15:38:00,
2016-07-28 08:43:00,64.9,59.0,30.12,North,5,9.0,12.0,81,0.00,,,0.00,425.0,meteohub,2016-07-28 15:43:00,
2016-07-28 08:48:00,65.1,58.8,30.11,North,9,10.0,12.0,80,0.00,,,0.00,436.0,meteohub,2016-07-28 15:48:00,
2016-07-28 08:53:00,65.5,59.5,30.11,North,0,9.0,11.0,81,0.00,,,0.00,450.0,meteohub,2016-07-28 15:53:00,
2016-07-28 08:58:00,65.3,59.4,30.11,NNW,348,9.0,11.0,81,0.00,,,0.00,466.0,meteohub,2016-07-28 15:58:00,
2016-07-28 09:03:00,65.7,59.0,30.11,North,5,8.0,10.0,79,0.00,,,0.00,480.0,meteohub,2016-07-28 16:03:00,
2016-07-28 09:08:00,65.8,59.5,30.10,North,5,8.0,10.0,80,0.00,,,0.00,492.0,meteohub,2016-07-28 16:08:00,
2016-07-28 09:13:00,65.8,59.5,30.10,NNE,13,7.0,10.0,80,0.00,,,0.00,506.0,meteohub,2016-07-28 16:13:00,
2016-07-28 09:18:00,66.2,59.2,30.10,NNE,14,9.0,10.0,78,0.00,,,0.00,517.0,meteohub,2016-07-28 16:18:00,
2016-07-28 09:23:00,66.7,59.0,30.10,North,5,8.0,10.0,76,0.00,,,0.00,529.0,meteohub,2016-07-28 16:23:00,
2016-07-28 09:28:00,67.1,58.8,30.10,North,355,8.0,9.0,75,0.00,,,0.00,541.0,meteohub,2016-07-28 16:28:00,
2016-07-28 09:33:00,67.3,59.0,30.10,NNE,16,8.0,9.0,75,0.00,,,0.00,555.0,meteohub,2016-07-28 16:33:00,
2016-07-28 09:38:00,67.6,59.0,30.10,NNE,13,8.0,9.0,74,0.00,,,0.00,568.0,meteohub,2016-07-28 16:38:00,
2016-07-28 09:43:00,68.0,59.0,30.10,North,9,9.0,9.0,73,0.00,,,0.00,580.0,meteohub,2016-07-28 16:43:00,
2016-07-28 09:48:00,68.4,59.4,30.09,North,355,8.0,9.0,73,0.00,,,0.00,591.0,meteohub,2016-07-28 16:48:00,
2016-07-28 09:53:00,68.2,59.5,30.09,North,355,8.0,9.0,74,0.00,,,0.00,601.0,meteohub,2016-07-28 16:53:00,
2016-07-28 09:58:00,68.2,59.5,30.09,North,355,6.0,9.0,74,0.00,,,0.00,615.0,meteohub,2016-07-28 16:58:00,
2016-07-28 10:03:00,68.9,59.2,30.09,NNE,12,8.0,9.0,71,0.00,,,0.00,628.0,meteohub,2016-07-28 17:03:00,
2016-07-28 10:08:00,69.6,59.4,30.08,North,9,8.0,9.0,70,0.00,,,0.00,640.0,meteohub,2016-07-28 17:08:00,
2016-07-28 10:13:00,70.2,59.9,30.08,North,355,8.0,9.0,70,0.00,,,0.00,650.0,meteohub,2016-07-28 17:13:00,
2016-07-28 10:18:00,70.2,59.5,30.08,North,5,9.0,9.0,69,0.00,,,0.00,661.0,meteohub,2016-07-28 17:18:00,
2016-07-28 10:23:00,70.0,59.4,30.07,North,5,8.0,10.0,69,0.00,,,0.00,671.0,meteohub,2016-07-28 17:23:00,
2016-07-28 10:28:00,70.3,59.7,30.07,North,11,8.0,10.0,69,0.00,,,0.00,680.0,meteohub,2016-07-28 17:28:00,
2016-07-28 10:34:00,70.7,59.5,30.07,North,9,9.0,10.0,68,0.00,,,0.00,691.0,meteohub,2016-07-28 17:34:00,
2016-07-28 10:39:00,71.1,59.9,30.07,NNW,347,6.0,9.0,68,0.00,,,0.00,701.0,meteohub,2016-07-28 17:39:00,
2016-07-28 10:44:00,71.1,59.9,30.07,North,351,5.0,9.0,68,0.00,,,0.00,712.0,meteohub,2016-07-28 17:44:00,
2016-07-28 10:49:00,71.2,60.1,30.07,North,355,6.0,9.0,68,0.00,,,0.00,722.0,meteohub,2016-07-28 17:49:00,
2016-07-28 10:54:00,71.6,59.7,30.06,North,9,5.0,9.0,66,0.00,,,0.00,731.0,meteohub,2016-07-28 17:54:00,
2016-07-28 10:59:00,72.1,60.6,30.06,North,5,5.0,9.0,67,0.00,,,0.00,740.0,meteohub,2016-07-28 17:59:00,
2016-07-28 11:04:00,72.0,60.4,30.06,North,9,7.0,9.0,67,0.00,,,0.00,747.0,meteohub,2016-07-28 18:04:00,
2016-07-28 11:10:00,72.1,60.1,30.06,North,5,5.0,8.0,66,0.00,,,0.00,756.0,meteohub,2016-07-28 18:10:00,
2016-07-28 11:15:00,72.9,59.9,30.06,North,5,5.0,8.0,64,0.00,,,0.00,765.0,meteohub,2016-07-28 18:15:00,
2016-07-28 11:20:00,73.2,60.3,30.06,North,355,6.0,8.0,64,0.00,,,0.00,772.0,meteohub,2016-07-28 18:20:00,
2016-07-28 11:25:00,73.6,60.6,30.05,North,355,6.0,9.0,64,0.00,,,0.00,780.0,meteohub,2016-07-28 18:25:00,
2016-07-28 11:30:00,73.6,61.2,30.05,North,355,8.0,9.0,65,0.00,,,0.00,788.0,meteohub,2016-07-28 18:30:00,
2016-07-28 11:35:00,73.6,60.6,30.05,NNW,348,8.0,10.0,64,0.00,,,0.00,795.0,meteohub,2016-07-28 18:35:00,
2016-07-28 11:40:00,73.8,60.4,30.05,North,355,8.0,10.0,63,0.00,,,0.00,800.0,meteohub,2016-07-28 18:40:00,
2016-07-28 11:45:00,74.1,60.8,30.05,NNW,342,6.0,10.0,63,0.00,,,0.00,807.0,meteohub,2016-07-28 18:45:00,
2016-07-28 11:50:00,74.5,60.6,30.04,North,5,8.0,10.0,62,0.00,,,0.00,814.0,meteohub,2016-07-28 18:50:00,
2016-07-28 11:55:00,74.7,60.3,30.04,NNW,345,8.0,10.0,61,0.00,,,0.00,819.0,meteohub,2016-07-28 18:55:00,
2016-07-28 12:00:00,74.8,60.4,30.04,North,355,5.0,10.0,61,0.00,,,0.00,823.0,meteohub,2016-07-28 19:00:00,
2016-07-28 12:06:00,75.2,60.4,30.04,North,355,4.0,9.0,60,0.00,,,0.00,828.0,meteohub,2016-07-28 19:06:00,
2016-07-28 12:11:00,75.4,60.1,30.04,North,355,3.0,9.0,59,0.00,,,0.00,833.0,meteohub,2016-07-28 19:11:00,
2016-07-28 12:16:00,75.7,60.8,30.04,North,355,5.0,9.0,60,0.00,,,0.00,838.0,meteohub,2016-07-28 19:16:00,
2016-07-28 12:21:00,75.7,60.8,30.04,NNE,14,3.0,6.0,60,0.00,,,0.00,844.0,meteohub,2016-07-28 19:21:00,
2016-07-28 12:26:00,75.6,60.3,30.04,West,269,3.0,6.0,59,0.00,,,0.00,846.0,meteohub,2016-07-28 19:26:00,
2016-07-28 12:31:00,78.6,61.2,30.04,SSW,194,3.0,6.0,55,0.00,,,0.00,849.0,meteohub,2016-07-28 19:31:00,
2016-07-28 12:36:00,81.1,59.5,30.04,SSW,203,11.0,11.0,48,0.00,,,0.00,854.0,meteohub,2016-07-28 19:36:00,
2016-07-28 12:41:00,82.0,59.9,30.03,SSW,202,11.0,12.0,47,0.00,,,0.00,856.0,meteohub,2016-07-28 19:41:00,
2016-07-28 12:46:00,82.8,60.4,30.03,SW,220,4.0,16.0,47,0.00,,,0.00,860.0,meteohub,2016-07-28 19:46:00,
2016-07-28 12:51:00,83.3,61.0,30.03,WSW,242,13.0,16.0,47,0.00,,,0.00,860.0,meteohub,2016-07-28 19:51:00,
2016-07-28 12:56:00,83.5,60.4,30.03,SSW,211,7.0,14.0,46,0.00,,,0.00,863.0,meteohub,2016-07-28 19:56:00,
2016-07-28 13:01:00,83.8,60.8,30.03,SSE,156,1.0,13.0,46,0.00,,,0.00,867.0,meteohub,2016-07-28 20:01:00,
2016-07-28 13:06:00,84.4,60.8,30.02,WSW,252,4.0,15.0,45,0.00,,,0.00,868.0,meteohub,2016-07-28 20:06:00,
2016-07-28 13:11:00,84.6,60.8,30.02,WNW,300,0.0,15.0,45,0.00,,,0.00,867.0,meteohub,2016-07-28 20:11:00,
2016-07-28 13:17:00,84.6,60.3,30.02,ESE,111,4.0,15.0,44,0.00,,,0.00,867.0,meteohub,2016-07-28 20:17:00,
2016-07-28 13:22:00,84.7,60.4,30.02,South,184,11.0,18.0,44,0.00,,,0.00,868.0,meteohub,2016-07-28 20:22:00,
2016-07-28 13:27:00,85.1,60.1,30.01,ESE,103,8.0,18.0,43,0.00,,,0.00,867.0,meteohub,2016-07-28 20:27:00,
2016-07-28 13:32:00,85.3,60.3,30.01,NE,40,2.0,20.0,43,0.00,,,0.00,865.0,meteohub,2016-07-28 20:32:00,
2016-07-28 13:37:00,85.3,60.3,30.01,WSW,246,17.0,21.0,43,0.00,,,0.00,863.0,meteohub,2016-07-28 20:37:00,
2016-07-28 13:42:00,85.3,60.3,30.01,ESE,111,4.0,22.0,43,0.00,,,0.00,861.0,meteohub,2016-07-28 20:42:00,
2016-07-28 13:47:00,85.3,60.3,30.00,SSE,158,18.0,22.0,43,0.00,,,0.00,858.0,meteohub,2016-07-28 20:47:00,
2016-07-28 13:52:00,85.1,60.1,30.00,South,171,9.0,25.0,43,0.00,,,0.00,860.0,meteohub,2016-07-28 20:52:00,
2016-07-28 13:57:00,84.9,59.9,30.00,SSE,159,6.0,25.0,43,0.00,,,0.00,856.0,meteohub,2016-07-28 20:57:00,
2016-07-28 14:02:00,84.7,60.4,30.01,SSE,150,15.0,25.0,44,0.00,,,0.00,849.0,meteohub,2016-07-28 21:02:00,
2016-07-28 14:07:00,84.9,60.6,30.00,SSW,201,20.0,24.0,44,0.00,,,0.00,847.0,meteohub,2016-07-28 21:07:00,
2016-07-28 14:12:00,85.1,60.1,30.00,South,171,20.0,24.0,43,0.00,,,0.00,844.0,meteohub,2016-07-28 21:12:00,
2016-07-28 14:17:00,85.1,60.1,30.00,South,178,11.0,24.0,43,0.00,,,0.00,840.0,meteohub,2016-07-28 21:17:00,
2016-07-28 14:22:00,84.9,59.9,30.00,SSW,203,11.0,26.0,43,0.00,,,0.00,835.0,meteohub,2016-07-28 21:22:00,
2016-07-28 14:27:00,84.9,59.9,29.99,South,188,8.0,26.0,43,0.00,,,0.00,830.0,meteohub,2016-07-28 21:27:00,
2016-07-28 14:33:00,84.9,59.9,29.99,SSW,196,17.0,26.0,43,0.00,,,0.00,828.0,meteohub,2016-07-28 21:33:00,
2016-07-28 14:43:00,85.1,59.4,29.99,SSW,209,9.0,26.0,42,0.00,,,0.00,817.0,meteohub,2016-07-28 21:43:00,
2016-07-28 14:48:00,85.3,59.5,29.99,SSW,209,19.0,25.0,42,0.00,,,0.00,817.0,meteohub,2016-07-28 21:48:00,
2016-07-28 14:53:00,85.3,59.0,29.99,SSW,207,26.0,26.0,41,0.00,,,0.00,810.0,meteohub,2016-07-28 21:53:00,
2016-07-28 14:58:00,85.3,59.0,29.99,South,184,19.0,27.0,41,0.00,,,0.00,803.0,meteohub,2016-07-28 21:58:00,
2016-07-28 15:03:00,85.6,58.5,29.99,SSW,206,22.0,27.0,40,0.00,,,0.00,800.0,meteohub,2016-07-28 22:03:00,
2016-07-28 15:08:00,85.3,59.0,29.99,South,178,10.0,27.0,41,0.00,,,0.00,796.0,meteohub,2016-07-28 22:08:00,
2016-07-28 15:13:00,85.6,59.2,29.99,South,184,14.0,27.0,41,0.00,,,0.00,786.0,meteohub,2016-07-28 22:13:00,
2016-07-28 15:18:00,85.6,58.5,29.99,SE,145,12.0,27.0,40,0.00,,,0.00,777.0,meteohub,2016-07-28 22:18:00,
2016-07-28 15:23:00,85.8,58.6,29.98,SSE,150,11.0,25.0,40,0.00,,,0.00,772.0,meteohub,2016-07-28 22:23:00,
2016-07-28 15:28:00,85.6,58.5,29.98,South,169,18.0,25.0,40,0.00,,,0.00,761.0,meteohub,2016-07-28 22:28:00,
2016-07-28 15:33:00,85.8,57.9,29.98,SSE,165,15.0,24.0,39,0.00,,,0.00,754.0,meteohub,2016-07-28 22:33:00,
2016-07-28 15:38:00,85.8,58.6,29.98,SSW,196,9.0,26.0,40,0.00,,,0.00,745.0,meteohub,2016-07-28 22:38:00,
2016-07-28 15:43:00,86.0,59.5,29.98,NW,304,9.0,26.0,41,0.00,,,0.00,737.0,meteohub,2016-07-28 22:43:00,
2016-07-28 15:48:00,85.8,59.4,29.98,SSE,158,13.0,26.0,41,0.00,,,0.00,726.0,meteohub,2016-07-28 22:48:00,
2016-07-28 15:53:00,86.0,59.5,29.98,SSW,196,20.0,25.0,41,0.00,,,0.00,719.0,meteohub,2016-07-28 22:53:00,
2016-07-28 15:58:00,86.2,59.7,29.97,South,172,17.0,25.0,41,0.00,,,0.00,710.0,meteohub,2016-07-28 22:58:00,
2016-07-28 16:03:00,86.0,59.5,29.98,SSW,203,9.0,27.0,41,0.00,,,0.00,701.0,meteohub,2016-07-28 23:03:00,
2016-07-28 16:08:00,86.4,59.2,29.97,SSW,198,20.0,27.0,40,0.00,,,0.00,691.0,meteohub,2016-07-28 23:08:00,
2016-07-28 16:13:00,86.2,59.7,29.97,South,173,16.0,27.0,41,0.00,,,0.00,682.0,meteohub,2016-07-28 23:13:00,
2016-07-28 16:18:00,86.2,59.7,29.97,SSW,201,20.0,27.0,41,0.00,,,0.00,670.0,meteohub,2016-07-28 23:18:00,
2016-07-28 16:23:00,86.2,59.0,29.98,SSW,200,19.0,27.0,40,0.00,,,0.00,657.0,meteohub,2016-07-28 23:23:00,
2016-07-28 16:28:00,85.8,58.6,29.97,SSW,213,18.0,27.0,40,0.00,,,0.00,645.0,meteohub,2016-07-28 23:28:00,
2016-07-28 16:33:00,85.8,58.6,29.97,SW,229,17.0,26.0,40,0.00,,,0.00,635.0,meteohub,2016-07-28 23:33:00,
2016-07-28 16:38:00,85.6,58.5,29.98,SSW,205,20.0,26.0,40,0.00,,,0.00,622.0,meteohub,2016-07-28 23:38:00,
2016-07-28 16:43:00,85.6,59.2,29.97,SSW,197,10.0,27.0,41,0.00,,,0.00,610.0,meteohub,2016-07-28 23:43:00,
2016-07-28 16:48:00,85.6,58.5,29.97,South,186,14.0,27.0,40,0.00,,,0.00,598.0,meteohub,2016-07-28 23:48:00,
2016-07-28 16:53:00,85.6,58.5,29.97,SSW,199,16.0,27.0,40,0.00,,,0.00,584.0,meteohub,2016-07-28 23:53:00,
2016-07-28 16:58:00,85.6,58.5,29.98,SSW,194,10.0,26.0,40,0.00,,,0.00,573.0,meteohub,2016-07-28 23:58:00,
2016-07-28 17:03:00,85.8,58.6,29.97,South,173,20.0,23.0,40,0.00,,,0.00,559.0,meteohub,2016-07-29 00:03:00,
2016-07-28 17:08:00,85.6,58.5,29.97,SSW,202,18.0,25.0,40,0.00,,,0.00,547.0,meteohub,2016-07-29 00:08:00,
2016-07-28 17:13:00,85.8,57.9,29.97,West,270,8.0,25.0,39,0.00,,,0.00,533.0,meteohub,2016-07-29 00:13:00,
2016-07-28 17:18:00,86.0,57.4,29.97,South,171,5.0,25.0,38,0.00,,,0.00,520.0,meteohub,2016-07-29 00:18:00,
2016-07-28 17:23:00,85.8,57.2,29.97,SSE,161,15.0,27.0,38,0.00,,,0.00,504.0,meteohub,2016-07-29 00:23:00,
2016-07-28 17:28:00,85.6,57.9,29.97,South,185,10.0,27.0,39,0.00,,,0.00,492.0,meteohub,2016-07-29 00:28:00,
2016-07-28 17:33:00,85.5,57.7,29.97,SSW,198,16.0,27.0,39,0.00,,,0.00,480.0,meteohub,2016-07-29 00:33:00,
2016-07-28 17:39:00,85.5,57.7,29.97,SSW,201,18.0,26.0,39,0.00,,,0.00,466.0,meteohub,2016-07-29 00:39:00,
2016-07-28 17:44:00,85.5,57.7,29.97,SSW,200,15.0,22.0,39,0.00,,,0.00,454.0,meteohub,2016-07-29 00:44:00,
2016-07-28 17:49:00,85.5,57.7,29.97,SSW,193,10.0,22.0,39,0.00,,,0.00,438.0,meteohub,2016-07-29 00:49:00,
2016-07-28 17:54:00,85.3,58.3,29.97,SSW,194,15.0,22.0,40,0.00,,,0.00,424.0,meteohub,2016-07-29 00:54:00,
2016-07-28 17:59:00,85.1,58.1,29.97,South,184,8.0,23.0,40,0.00,,,0.00,411.0,meteohub,2016-07-29 00:59:00,
2016-07-28 18:04:00,84.9,58.6,29.97,South,173,15.0,23.0,41,0.00,,,0.00,396.0,meteohub,2016-07-29 01:04:00,
2016-07-28 18:09:00,84.9,58.6,29.97,ESE,115,11.0,25.0,41,0.00,,,0.00,330.0,meteohub,2016-07-29 01:09:00,
2016-07-28 18:14:00,84.7,59.2,29.97,South,183,9.0,25.0,42,0.00,,,0.00,30.0,meteohub,2016-07-29 01:14:00,
2016-07-28 18:24:00,84.4,58.8,29.97,SSW,205,12.0,25.0,42,0.00,,,0.00,28.0,meteohub,2016-07-29 01:24:00,
2016-07-28 18:29:00,84.2,58.6,29.97,SSW,194,10.0,19.0,42,0.00,,,0.00,28.0,meteohub,2016-07-29 01:29:00,
2016-07-28 18:34:00,84.0,58.5,29.97,SSW,197,11.0,19.0,42,0.00,,,0.00,26.0,meteohub,2016-07-29 01:34:00,
2016-07-28 18:39:00,83.7,58.8,29.97,SSW,205,13.0,19.0,43,0.00,,,0.00,26.0,meteohub,2016-07-29 01:39:00,
2016-07-28 18:44:00,83.5,58.6,29.97,South,185,11.0,19.0,43,0.00,,,0.00,25.0,meteohub,2016-07-29 01:44:00,
2016-07-28 18:49:00,83.3,59.2,29.97,South,182,11.0,20.0,44,0.00,,,0.00,25.0,meteohub,2016-07-29 01:49:00,
2016-07-28 18:54:00,83.7,58.8,29.97,SSW,192,10.0,20.0,43,0.00,,,0.00,23.0,meteohub,2016-07-29 01:54:00,
2016-07-28 18:59:00,83.1,59.0,29.97,SSW,194,6.0,20.0,44,0.00,,,0.00,23.0,meteohub,2016-07-29 01:59:00,
2016-07-28 19:04:00,82.8,58.6,29.97,South,179,13.0,20.0,44,0.00,,,0.00,23.0,meteohub,2016-07-29 02:04:00,
2016-07-28 19:09:00,82.8,59.2,29.97,South,190,17.0,20.0,45,0.00,,,0.00,21.0,meteohub,2016-07-29 02:09:00,
2016-07-28 19:14:00,82.2,58.8,29.96,SSW,206,13.0,20.0,45,0.00,,,0.00,21.0,meteohub,2016-07-29 02:14:00,
2016-07-28 19:19:00,82.6,59.0,29.97,WSW,239,14.0,22.0,45,0.00,,,0.00,19.0,meteohub,2016-07-29 02:19:00,
2016-07-28 19:25:00,82.0,59.2,29.97,SW,221,13.0,22.0,46,0.00,,,0.00,19.0,meteohub,2016-07-29 02:25:00,
2016-07-28 19:30:00,81.9,59.0,29.97,WSW,237,15.0,22.0,46,0.00,,,0.00,19.0,meteohub,2016-07-29 02:30:00,
2016-07-28 19:35:00,81.7,58.8,29.97,SW,228,12.0,22.0,46,0.00,,,0.00,18.0,meteohub,2016-07-29 02:35:00,
2016-07-28 19:40:00,81.3,59.2,29.97,SSW,209,11.0,22.0,47,0.00,,,0.00,18.0,meteohub,2016-07-29 02:40:00,
2016-07-28 19:45:00,81.1,59.5,29.97,SSW,198,20.0,22.0,48,0.00,,,0.00,16.0,meteohub,2016-07-29 02:45:00,
2016-07-28 19:50:00,81.0,59.4,29.97,SSW,208,25.0,25.0,48,0.00,,,0.00,16.0,meteohub,2016-07-29 02:50:00,
2016-07-28 19:55:00,80.8,59.9,29.97,South,182,13.0,26.0,49,0.00,,,0.00,16.0,meteohub,2016-07-29 02:55:00,
2016-07-28 20:00:00,80.6,59.7,29.97,SW,234,14.0,26.0,49,0.00,,,0.00,14.0,meteohub,2016-07-29 03:00:00,
2016-07-28 20:05:00,80.4,59.5,29.97,SSW,205,13.0,26.0,49,0.00,,,0.00,12.0,meteohub,2016-07-29 03:05:00,
2016-07-28 20:10:00,80.4,60.1,29.97,SSW,202,18.0,22.0,50,0.00,,,0.00,12.0,meteohub,2016-07-29 03:10:00,
2016-07-28 20:15:00,80.2,59.9,29.97,SE,140,13.0,22.0,50,0.00,,,0.00,11.0,meteohub,2016-07-29 03:15:00,
2016-07-28 20:20:00,80.1,59.7,29.97,WSW,241,14.0,22.0,50,0.00,,,0.00,11.0,meteohub,2016-07-29 03:20:00,
2016-07-28 20:25:00,79.9,60.1,29.97,SW,226,20.0,23.0,51,0.00,,,0.00,9.0,meteohub,2016-07-29 03:25:00,
2016-07-28 20:30:00,79.7,59.9,29.97,SSW,200,13.0,23.0,51,0.00,,,0.00,7.0,meteohub,2016-07-29 03:30:00,
2016-07-28 20:36:00,79.3,60.3,29.97,WSW,244,17.0,23.0,52,0.00,,,0.00,5.0,meteohub,2016-07-29 03:36:00,
2016-07-28 20:41:00,79.2,60.6,29.97,South,170,15.0,23.0,53,0.00,,,0.00,5.0,meteohub,2016-07-29 03:41:00,
2016-07-28 20:46:00,79.0,60.4,29.97,SSW,197,20.0,25.0,53,0.00,,,0.00,0.0,meteohub,2016-07-29 03:46:00,
2016-07-28 20:51:00,78.8,60.3,29.97,SSW,192,13.0,25.0,53,0.00,,,0.00,0.0,meteohub,2016-07-29 03:51:00,
2016-07-28 20:56:00,78.4,60.4,29.97,SSW,212,11.0,28.0,54,0.00,,,0.00,0.0,meteohub,2016-07-29 03:56:00,
2016-07-28 21:01:00,78.4,60.4,29.97,SSW,212,22.0,28.0,54,0.00,,,0.00,0.0,meteohub,2016-07-29 04:01:00,
2016-07-28 21:06:00,78.3,60.3,29.98,West,267,15.0,27.0,54,0.00,,,0.00,0.0,meteohub,2016-07-29 04:06:00,
2016-07-28 21:11:00,78.3,60.3,29.98,SSW,205,21.0,27.0,54,0.00,,,0.00,0.0,meteohub,2016-07-29 04:11:00,
2016-07-28 21:16:00,77.9,59.9,29.98,SSW,208,20.0,27.0,54,0.00,,,0.00,0.0,meteohub,2016-07-29 04:16:00,
2016-07-28 21:21:00,77.7,59.7,29.98,WSW,244,12.0,28.0,54,0.00,,,0.00,0.0,meteohub,2016-07-29 04:21:00,
2016-07-28 21:26:00,77.5,59.5,29.98,SSW,211,26.0,28.0,54,0.00,,,0.00,0.0,meteohub,2016-07-29 04:26:00,
2016-07-28 21:31:00,77.5,60.1,29.99,West,265,14.0,28.0,55,0.00,,,0.00,0.0,meteohub,2016-07-29 04:31:00,
2016-07-28 21:41:00,77.2,59.7,29.99,South,190,8.0,29.0,55,0.00,,,0.00,0.0,meteohub,2016-07-29 04:41:00,
2016-07-28 21:46:00,77.0,59.5,29.99,SSW,202,19.0,29.0,55,0.00,,,0.00,0.0,meteohub,2016-07-29 04:46:00,
2016-07-28 21:51:00,76.8,59.9,29.99,West,271,13.0,27.0,56,0.00,,,0.00,0.0,meteohub,2016-07-29 04:51:00,
2016-07-28 21:56:00,76.6,59.7,29.99,South,180,12.0,27.0,56,0.00,,,0.00,0.0,meteohub,2016-07-29 04:56:00,
2016-07-28 22:01:00,76.5,59.5,29.99,SSW,202,20.0,25.0,56,0.00,,,0.00,0.0,meteohub,2016-07-29 05:01:00,
2016-07-28 22:06:00,76.1,59.7,30.00,SSW,211,9.0,25.0,57,0.00,,,0.00,0.0,meteohub,2016-07-29 05:06:00,
2016-07-28 22:11:00,76.1,59.7,30.00,SSW,199,11.0,25.0,57,0.00,,,0.00,0.0,meteohub,2016-07-29 05:11:00,
2016-07-28 22:17:00,75.9,59.5,30.00,SSW,208,5.0,25.0,57,0.00,,,0.00,0.0,meteohub,2016-07-29 05:17:00,
2016-07-28 22:22:00,75.7,59.4,30.00,SSW,194,20.0,24.0,57,0.00,,,0.00,0.0,meteohub,2016-07-29 05:22:00,
2016-07-28 22:27:00,75.7,59.4,30.00,SE,143,2.0,24.0,57,0.00,,,0.00,0.0,meteohub,2016-07-29 05:27:00,
2016-07-28 22:32:00,75.6,59.2,30.01,SSE,157,5.0,23.0,57,0.00,,,0.00,0.0,meteohub,2016-07-29 05:32:00,
2016-07-28 22:37:00,75.4,59.5,30.01,SW,215,14.0,21.0,58,0.00,,,0.00,0.0,meteohub,2016-07-29 05:37:00,
2016-07-28 22:42:00,75.4,59.0,30.01,South,171,12.0,23.0,57,0.00,,,0.00,0.0,meteohub,2016-07-29 05:42:00,
2016-07-28 22:47:00,75.0,59.2,30.01,SW,219,19.0,23.0,58,0.00,,,0.00,0.0,meteohub,2016-07-29 05:47:00,
2016-07-28 22:52:00,75.0,59.2,30.01,SSE,149,16.0,23.0,58,0.00,,,0.00,0.0,meteohub,2016-07-29 05:52:00,
2016-07-28 22:57:00,74.8,59.0,30.01,SSW,192,19.0,26.0,58,0.00,,,0.00,0.0,meteohub,2016-07-29 05:57:00,
2016-07-28 23:02:00,74.7,59.4,30.01,SSW,198,15.0,26.0,59,0.00,,,0.00,0.0,meteohub,2016-07-29 06:02:00,
2016-07-28 23:07:00,74.5,59.2,30.02,SSW,200,12.0,26.0,59,0.00,,,0.00,0.0,meteohub,2016-07-29 06:07:00,
2016-07-28 23:12:00,74.3,59.0,30.02,SSW,201,12.0,26.0,59,0.00,,,0.00,0.0,meteohub,2016-07-29 06:12:00,
2016-07-28 23:17:00,74.1,59.4,30.02,SSW,192,5.0,20.0,60,0.00,,,0.00,0.0,meteohub,2016-07-29 06:17:00,
2016-07-28 23:22:00,73.9,59.2,30.02,SW,231,2.0,17.0,60,0.00,,,0.00,0.0,meteohub,2016-07-29 06:22:00,
2016-07-28 23:28:00,73.9,59.2,30.02,South,187,6.0,17.0,60,0.00,,,0.00,0.0,meteohub,2016-07-29 06:28:00,
2016-07-28 23:33:00,73.6,59.4,30.03,SW,232,4.0,14.0,61,0.00,,,0.00,0.0,meteohub,2016-07-29 06:33:00,
2016-07-28 23:38:00,73.4,59.2,30.02,SSW,208,6.0,14.0,61,0.00,,,0.00,0.0,meteohub,2016-07-29 06:38:00,
2016-07-28 23:43:00,73.2,59.0,30.02,SSW,213,7.0,11.0,61,0.00,,,0.00,0.0,meteohub,2016-07-29 06:43:00,
2016-07-28 23:48:00,73.0,59.2,30.02,SSW,203,8.0,12.0,62,0.00,,,0.00,0.0,meteohub,2016-07-29 06:48:00,